sat.trackr.live / text

‹ back to catalog

STARLINK-2220

NORAD 48570 · 2021-041T

PAYLOAD ACTIVE UNKNOWN

§ Identity

Operator
Country
US
Launch date
2021-05-15
Launch site
AFETR
Launch vehicle
Mass (kg)
RCS (m²)

Purposes: comms

External: N2YO · Heavens-Above · Gunter

§ Orbital elements

Epoch: 2026-06-26T20:19:54.135840Z

Period
88.38 min
Inclination
53.1089°
Eccentricity
0.0011738
Mean motion
16.29381167 rev/d
Perigee alt
186.5 km
Apogee alt
201.9 km
Semi-major
6,572.3 km
B*
1.0575e-3
RAAN
346.5809°
Arg perigee
324.0030°
Mean anomaly
36.0221°
Rev number
28,186

§ Raw data

STARLINK-22201 48570U 21041T   26177.84715435  .04765165  12113-4  10575-2 0  99982 48570  53.1089 346.5809 0011738 324.0030  36.0221 16.29381167281862

JSON: /api/v1/satellites/48570 · /tle

For live sub-satellite position, see the globe view (requires WebGL).

§ Visibility from observer

Set your observer location to see the next 7 days of passes ≥ 10°. The values pass through the URL so the page stays shareable.

No JS? Fill the form by hand. The geolocation button needs JavaScript.